Puyallup, WA

8:27 PM PST on November 17, 2019 (GMT -0800)
Pierce County - Thun Field

Weather History for KPLU - October, 2019

Change the Weather History Date:

Monday, October 21, 2019

  Actual Average (WUND) Record (WUND)
Temperature  
Mean Temperature 56 °F -  
Max Temperature 62 °F - - (-1)
Min Temperature 51 °F - - (-1)
Degree Days  
Heating Degree Days 8    
Growing Degree Days 6 (Base 50)    
Moisture  
Dew Point 51 °F    
Average Humidity 85    
Maximum Humidity 100    
Minimum Humidity 77    
Precipitation  
Precipitation 0.00 in - - ()
Sea Level Pressure  
Sea Level Pressure 30.16 in    
Wind  
Wind Speed 5 mph ()    
Max Wind Speed 12 mph    
Max Gust Speed 20 mph    
Visibility 8.4 miles    
Events Rain    
Averages and records for this station are not official NWS values.
T = Trace of Precipitation, MM = Missing Value Source: Averaged Metar Reports

Daily Weather History Graph

Daily Weather History Graph

Search for Another Location

Airport or City:

Astronomy

Oct. 21, 2019 Rise Set
Actual Time 7:35 AM PDT 6:11 PM PDT
Civil Twilight 7:04 AM PDT 6:42 PM PDT
Nautical Twilight 6:29 AM PDT 7:17 PM PDT
Astronomical Twilight 5:53 AM PDT 7:52 PM PDT
Moon No Moon Rise 3:11 PM PDT (10/21)
Length of Visible Light 11h 37m
Length of Day
10h 35m
Waning Gibbous, 47% of the Moon is Illuminated
Oct 21
Waning Gibbous
Oct 27
New
Nov 4
First Quarter
Nov 12
Full
Nov 19
Last Quarter

Hourly Weather History & Observations

Time (PDT) Temp. Dew Point Humidity Pressure Visibility Wind Dir Wind Speed Gust Speed Precip Events Conditions
12:15 AM 53.6 °F 46.4 °F 77% 30.14 in 10.0 mi SSW 3.5 mph - N/A   Mostly Cloudy
12:35 AM 51.8 °F 46.4 °F 82% 30.13 in 10.0 mi SSW 5.8 mph - N/A   Overcast
12:55 AM 51.8 °F 46.4 °F 82% 30.14 in 10.0 mi SSW 4.6 mph - N/A   Overcast
1:15 AM 53.6 °F 46.4 °F 77% 30.14 in 10.0 mi SSW 5.8 mph - N/A   Overcast
1:35 AM 53.6 °F 46.4 °F 77% 30.14 in 10.0 mi South 6.9 mph - N/A   Overcast
1:55 AM 53.6 °F 46.4 °F 77% 30.15 in 10.0 mi South 5.8 mph - N/A   Overcast
2:15 AM 53.6 °F 46.4 °F 77% 30.16 in 10.0 mi Variable 4.6 mph - N/A   Overcast
2:35 AM 53.6 °F 46.4 °F 77% 30.15 in 10.0 mi SSW 3.5 mph - N/A   Overcast
2:55 AM 53.6 °F 46.4 °F 77% 30.16 in 10.0 mi Calm Calm - N/A   Overcast
3:15 AM 51.8 °F 46.4 °F 82% 30.16 in 10.0 mi Calm Calm - N/A   Overcast
3:35 AM 51.8 °F 46.4 °F 82% 30.16 in 8.0 mi South 5.8 mph - N/A   Light Drizzle
3:55 AM 51.8 °F 48.2 °F 88% 30.16 in 10.0 mi South 6.9 mph - N/A   Overcast
4:15 AM 51.8 °F 48.2 °F 88% 30.16 in 10.0 mi South 4.6 mph - N/A   Overcast
4:35 AM 51.8 °F 48.2 °F 88% 30.17 in 10.0 mi SSW 3.5 mph - N/A   Overcast
4:55 AM 51.8 °F 48.2 °F 88% 30.18 in 9.0 mi Variable 4.6 mph - N/A   Light Drizzle
5:15 AM 51.8 °F 48.2 °F 88% 30.18 in 9.0 mi South 5.8 mph - N/A   Light Drizzle
5:35 AM 51.8 °F 48.2 °F 88% 30.18 in 9.0 mi South 4.6 mph - N/A   Overcast
5:55 AM 51.8 °F 48.2 °F 88% 30.18 in 10.0 mi Calm Calm - N/A   Overcast
6:15 AM 51.8 °F 48.2 °F 88% 30.17 in 10.0 mi South 4.6 mph - N/A   Overcast
6:35 AM 51.8 °F 46.4 °F 82% 30.18 in 10.0 mi SSW 4.6 mph - N/A   Overcast
6:55 AM 51.8 °F 46.4 °F 82% 30.18 in 10.0 mi SSW 4.6 mph - N/A   Overcast
7:15 AM 53.6 °F 46.4 °F 77% 30.18 in 10.0 mi South 4.6 mph - N/A   Overcast
7:35 AM 53.6 °F 46.4 °F 77% 30.18 in - Variable 4.6 mph - N/A   Overcast
7:55 AM 53.6 °F 46.4 °F 77% 30.18 in 9.0 mi South 4.6 mph - N/A   Overcast
8:15 AM 53.6 °F 46.4 °F 77% 30.18 in 10.0 mi South 4.6 mph - N/A   Overcast
8:35 AM 53.6 °F 46.4 °F 77% 30.19 in 10.0 mi Variable 5.8 mph - N/A   Overcast
8:55 AM 53.6 °F 46.4 °F 77% 30.19 in 10.0 mi South 4.6 mph - N/A   Overcast
9:15 AM 53.6 °F 46.4 °F 77% 30.18 in 10.0 mi South 4.6 mph - N/A   Overcast
9:35 AM 53.6 °F 48.2 °F 82% 30.19 in 10.0 mi Variable 4.6 mph - N/A   Overcast
9:55 AM 55.4 °F 48.2 °F 77% 30.19 in 10.0 mi South 6.9 mph - N/A   Overcast
10:15 AM 55.4 °F 48.2 °F 77% 30.20 in 10.0 mi South 5.8 mph 13.8 mph N/A   Overcast
10:35 AM 55.4 °F 48.2 °F 77% 30.20 in 10.0 mi Variable 5.8 mph - N/A   Overcast
10:55 AM 55.4 °F 48.2 °F 77% 30.20 in 10.0 mi Variable 4.6 mph - N/A   Overcast
11:15 AM 55.4 °F 50.0 °F 82% 30.20 in 10.0 mi South 5.8 mph - N/A   Overcast
11:35 AM 55.4 °F 50.0 °F 82% 30.19 in 3.0 mi South 4.6 mph - N/A   Haze
11:55 AM 53.6 °F 50.0 °F 88% 30.18 in 9.0 mi Variable 3.5 mph - N/A   Overcast
12:15 PM 55.4 °F 50.0 °F 82% 30.17 in 8.0 mi Variable 3.5 mph - N/A   Overcast
12:35 PM 55.4 °F 51.8 °F 88% 30.16 in 7.0 mi Variable 5.8 mph - N/A   Light Drizzle
12:55 PM 55.4 °F 51.8 °F 88% 30.17 in 8.0 mi South 4.6 mph - N/A   Light Drizzle
1:15 PM 55.4 °F 51.8 °F 88% 30.16 in 3.0 mi SSW 4.6 mph - N/A   Light Drizzle
1:35 PM 55.4 °F 53.6 °F 94% 30.15 in 7.0 mi South 5.8 mph - N/A   Light Drizzle
1:55 PM 57.2 °F 53.6 °F 88% 30.14 in 10.0 mi South 6.9 mph 13.8 mph N/A   Mostly Cloudy
2:15 PM 57.2 °F 53.6 °F 88% 30.14 in 10.0 mi Variable 6.9 mph 13.8 mph N/A   Light Drizzle
2:35 PM 59.0 °F 53.6 °F 82% 30.13 in 10.0 mi SSW 8.1 mph - N/A   Overcast
2:55 PM 60.8 °F 53.6 °F 77% 30.13 in 10.0 mi SSW 10.4 mph - N/A   Overcast
3:15 PM 60.8 °F 53.6 °F 77% 30.14 in 10.0 mi Variable 5.8 mph 13.8 mph N/A   Overcast
3:35 PM 60.8 °F 53.6 °F 77% 30.14 in 10.0 mi SSW 6.9 mph 13.8 mph N/A   Overcast
3:55 PM 60.8 °F 53.6 °F 77% 30.14 in 10.0 mi SSW 9.2 mph - N/A   Overcast
4:15 PM 60.8 °F 53.6 °F 77% 30.14 in 10.0 mi SSW 10.4 mph 16.1 mph N/A   Overcast
4:35 PM 62.6 °F 55.4 °F 77% 30.15 in 9.0 mi SSW 9.2 mph 19.6 mph N/A   Overcast
4:55 PM 60.8 °F 55.4 °F 82% 30.15 in 10.0 mi Variable 6.9 mph 18.4 mph N/A   Overcast
5:15 PM 60.8 °F 55.4 °F 82% 30.15 in 8.0 mi SSW 9.2 mph 17.3 mph N/A   Overcast
5:35 PM 60.8 °F 55.4 °F 82% 30.15 in 4.0 mi Variable 6.9 mph 16.1 mph N/A   Light Drizzle
5:55 PM 59.0 °F 57.2 °F 94% 30.14 in 1.5 mi South 6.9 mph 13.8 mph N/A Rain Rain
6:15 PM 59.0 °F 57.2 °F 94% 30.13 in 1.2 mi South 10.4 mph - N/A Rain Rain
6:35 PM 59.0 °F 57.2 °F 94% 30.14 in 2.5 mi Variable 4.6 mph 11.5 mph N/A   Light Drizzle
6:55 PM 57.2 °F 57.2 °F 100% 30.15 in - Calm Calm - N/A Rain Rain
7:15 PM 57.2 °F 57.2 °F 100% 30.15 in 2.0 mi SSW 4.6 mph - N/A Rain Light Rain
7:35 PM 57.2 °F 57.2 °F 100% 30.15 in 2.5 mi Calm Calm - N/A   Light Drizzle
7:55 PM 57.2 °F 57.2 °F 100% 30.16 in 2.5 mi WSW 3.5 mph - N/A   Light Drizzle
8:15 PM 57.2 °F 57.2 °F 100% 30.16 in 3.0 mi SSW 5.8 mph - N/A   Light Drizzle
8:35 PM 57.2 °F 57.2 °F 100% 30.16 in 3.0 mi Variable 6.9 mph 15.0 mph N/A   Light Drizzle
8:55 PM 57.2 °F 57.2 °F 100% 30.16 in 5.0 mi SSW 10.4 mph - N/A   Light Drizzle
9:15 PM 59.0 °F 59.0 °F 100% 30.17 in 10.0 mi SSW 8.1 mph - N/A   Overcast
9:35 PM 59.0 °F 59.0 °F 100% 30.17 in 10.0 mi SSW 9.2 mph - N/A   Overcast
9:55 PM 59.0 °F 59.0 °F 100% 30.17 in 10.0 mi SSW 10.4 mph 17.3 mph N/A   Overcast
10:15 PM 59.0 °F 59.0 °F 100% 30.17 in 10.0 mi South 9.2 mph 16.1 mph N/A   Overcast
10:35 PM 60.8 °F 57.2 °F 88% 30.17 in 10.0 mi South 11.5 mph 18.4 mph N/A   Overcast
10:55 PM 60.8 °F 57.2 °F 88% 30.16 in 10.0 mi SSW 9.2 mph 16.1 mph N/A   Overcast
11:15 PM 60.8 °F 57.2 °F 88% 30.16 in 10.0 mi SSW 10.4 mph 18.4 mph N/A   Overcast
11:35 PM 60.8 °F 57.2 °F 88% 30.16 in 10.0 mi SSW 8.1 mph 15.0 mph N/A   Overcast
11:55 PM 60.8 °F 57.2 °F 88% 30.16 in 8.0 mi SSW 8.1 mph 16.1 mph N/A   Light Drizzle